BREEZE-M DEB, 38622

Orbit data source: Space-Track

BREEZE-M DEB, 38622 is space debris in HEO originally from a launch on Fri, 14 Mar 2008 UTC launched from the Tyuratam Missile And Space Complex (TTMTR). Debris objects in space refer to the collection of defunct objects orbiting the Earth. Examples of debris include non-operational satellites, rocket bodies, and fragments generated from explosions, collisions, or faulty payload assembly.

Loading next visibility...
Identifier
38622, 2008-011BV
Orbit
HEO
Country
Flag of CISCIS
Related business
Manufacturer
Unknown
Mission
Spacecraft
Bus & Motor
Unknown
Mass
Unknown
Launch date (UTC)
2008-03-14 (18 years ago)
Launch vehicle
Unknown
Launch site
Tyuratam Missile And Space Complex (TTMTR)
Object type
Payload
Rocket body
Debris
Shape & HBR
Unknown shape, 0.3 m
Radar Cross Section
Medium (>0.1 m² and <1 m²)

Expand to show TLE details & history
Last TLE update: 8 months ago

TLE from 8 months ago
0 BREEZE-M DEB
1 38622U 08011BV  25283.10260089 -.00000212  00000-0 -46027-3 0  9996
2 38622  49.3462 334.6235 6530395 244.3086  36.5432  3.10736650157585
Epoch: 2025-10-10T02:27Z
TLE epoch observation values (Epoch: 2025-10-10T02:27:44.716Z)
Latitude
-0.00002°
Longitude
-81.23557°
Altitude
9,509.216 km
Speed
5.485 km/s
True Right ascension
22h 18m 36s
True Declination
0° 00' 00"
Sunlit
Object was in daylight at epoch
Visualization orbit readout
Latitude
Unknown
Longitude
Unknown
Altitude
Unknown
Speed
Unknown
Apparent Right ascension
Unknown
Apparent Declination
Unknown
Sunlit
N/A
Visualization observer readout
Local Sidereal Time
12:31:47
Azimuth
Unknown
Elevation
Unknown
Doppler factor
Unknown
Orbital elements
Apogee altitude
26,414.196 km
Perigee altitude
504.726 km
Semi-major axis
19,837.598 km
Eccentricity
0.65304
Inclination
49.3462°
RAAN
334.6235°
Arg. of periapsis
244.3086°
True anomaly
115.68311°
Mean anomaly
36.5432°
Eccentric anomaly
72.16058°
Mean motion
0.7768 °/min
Orbital period
463.44 mins
BSTAR
-0.00046027
Loading maneuver chart data...
Computing Atmospheric mass density...
Loading historical data...
Loading historical data...
Loading historical data...
Loading historical data...
Loading historical data...
Loading historical data...
Loading historical data...

Documentation

Showing up to 5 results
|